DW1384 Weather Reports


time (UTC)temp
C
wind
direction
speed
KPH
gust
KPH
rain 1hr
cm
rain 24hr
cm
rain mn
cm
humidity
%
barometer
mb
20260902150440 21 297 0.0 0.0 0.00 0.00 0.00 53 1020.2
20260902145940 21 259 0.0 0.0 0.00 0.00 0.00 54 1020.2
20260902145440 21 269 0.0 0.0 0.00 0.00 0.00 53 1020.1
20260902144941 21 224 0.0 0.0 0.00 0.00 0.00 53 1020.2
20260902144441 21 186 0.0 0.0 0.00 0.00 0.00 53 1020.3
20260902143936 22 230 0.0 0.0 0.00 0.00 0.00 53 1020.3
20260902143437 22 336 0.0 0.0 0.00 0.00 0.00 52 1020.3
20260902142937 21 310 0.0 0.0 0.00 0.00 0.00 51 1020.3
20260902142437 21 261 0.0 0.0 0.00 0.00 0.00 53 1020.3
20260902142425 21 310 0.0 0.0 0.00 0.00 0.00 55 1020.4
20260902141436 21 234 0.0 0.0 0.00 0.00 0.00 54 1020.3
20260902140936 21 286 0.0 0.0 0.00 0.00 0.00 57 1020.3
20260902140437 21 103 0.0 0.0 0.00 0.00 0.00 57 1020.4
20260902135936 21 238 0.0 0.0 0.00 0.00 0.00 56 1020.4
20260902135433 20 187 0.0 0.0 0.00 0.00 0.00 56 1020.3
20260902134932 20 252 0.0 0.0 0.00 0.00 0.00 56 1020.3
20260902134432 20 343 0.0 0.0 0.00 0.00 0.00 58 1020.4
20260902133935 20 307 0.0 0.0 0.00 0.00 0.00 58 1020.5
20260902133433 21 220 0.0 0.0 0.00 0.00 0.00 56 1020.5
20260902132932 21 95 0.0 0.0 0.00 0.00 0.00 57 1020.4
20260902132432 21 274 0.0 0.0 0.00 0.00 0.00 58 1020.4
20260902131932 20 18 0.0 0.0 0.00 0.00 0.00 58 1020.6
20260902131432 20 310 0.0 0.0 0.00 0.00 0.00 58 1020.6
20260902130928 20 303 0.0 0.0 0.00 0.00 0.00 60 1020.6
20260902130428 19 285 0.0 0.0 0.00 0.00 0.00 59 1020.6
20260902125928 19 12 0.0 0.0 0.00 0.00 0.00 60 1020.6
20260902125650 19 180 0.0 0.0 0.00 0.00 0.00 59 1020.7
20260902124928 19 303 0.0 0.0 0.00 0.00 0.00 58 1020.7
20260902124653 20 289 0.0 0.0 0.00 0.00 0.00 58 1020.7
20260902124145 20 307 0.0 0.0 0.00 0.00 0.00 59 1020.6
20260902123428 20 274 0.0 0.0 0.00 0.00 0.00 58 1020.6
20260902122928 20 305 0.0 0.0 0.00 0.00 0.00 57 1020.5
20260902122424 20 310 0.0 0.0 0.00 0.00 0.00 58 1020.5
20260902121924 20 247 0.0 0.0 0.00 0.00 0.00 59 1020.5
20260902121424 20 299 0.0 0.0 0.00 0.00 0.00 59 1020.5
20260902120924 20 205 0.0 0.0 0.00 0.00 0.00 58 1020.5
20260902120911 20 222 0.0 0.0 0.00 0.00 0.00 57 1020.6
20260902115924 20 86 0.0 0.0 0.00 0.00 0.00 58 1020.6
20260902115424 20 265 0.0 0.0 0.00 0.00 0.00 60 1020.7
20260902114925 19 301 0.0 0.0 0.00 0.00 0.00 60 1020.6
20260902114644 19 338 0.0 0.0 0.00 0.00 0.00 61 1020.7
20260902113920 19 278 0.0 0.0 0.00 0.00 0.00 62 1020.6
20260902113421 19 270 0.0 0.0 0.00 0.00 0.00 63 1020.6
20260902112920 18 143 0.0 0.0 0.00 0.00 0.00 62 1020.6
20260902112420 19 237 0.0 0.0 0.00 0.00 0.00 64 1020.6
20260902111920 19 168 0.0 0.0 0.00 0.00 0.00 65 1020.6
20260902111642 18 288 0.0 0.0 0.00 0.00 0.00 63 1020.6
20260902110920 18 230 0.0 0.0 0.00 0.00 0.00 63 1020.7
20260902110420 18 243 0.0 0.0 0.00 0.00 0.00 65 1020.8
20260902105920 18 230 0.0 0.0 0.00 0.00 0.00 64 1020.7
20260902105420 19 262 0.0 0.0 0.00 0.00 0.00 64 1020.8
20260902105401 18 237 0.0 0.0 0.00 0.00 0.00 64 1020.7
20260902104644 18 227 0.0 0.0 0.00 0.00 0.00 63 1020.7
20260902103920 19 230 0.0 0.0 0.00 0.00 0.00 63 1020.7
20260902103420 19 190 0.0 0.0 0.00 0.00 0.00 63 1020.7
20260902103145 19 217 0.0 0.0 0.00 0.00 0.00 66 1020.7
20260902102900 19 187 0.0 0.0 0.00 0.00 0.00 67 1020.7
20260902101920 18 140 0.0 0.0 0.00 0.00 0.00 66 1020.6
20260902101421 18 246 0.0 0.0 0.00 0.00 0.00 67 1020.7
20260902100933 18 245 0.0 0.0 0.00 0.00 0.00 68 1020.7
20260902100420 18 247 0.0 0.0 0.00 0.00 0.00 67 1020.6
20260902100143 18 188 0.0 0.0 0.00 0.00 0.00 67 1020.7
20260902095420 18 156 0.0 0.0 0.00 0.00 0.00 67 1020.7
20260902094920 18 183 0.0 0.0 0.00 0.00 0.00 67 1020.8
20260902094420 18 236 0.0 0.0 0.00 0.00 0.00 68 1020.8
20260902093920 19 172 0.0 0.0 0.00 0.00 0.00 69 1020.6
20260902093420 19 263 0.0 0.0 0.00 0.00 0.00 73 1020.6
20260902092922 18 322 0.0 0.0 0.00 0.00 0.00 74 1020.6
20260902092421 18 178 0.0 0.0 0.00 0.00 0.00 75 1020.6
20260902091920 18 259 0.0 0.0 0.00 0.00 0.00 78 1020.6
20260902091420 18 193 0.0 0.0 0.00 0.00 0.00 78 1020.6
20260902090918 17 143 0.0 0.0 0.00 0.00 0.00 82 1020.6
20260902090641 17 197 0.0 0.0 0.00 0.00 0.00 83 1020.6
20260902085918 17 180 0.0 0.0 0.00 0.00 0.00 85 1020.7
20260902085418 16 226 0.0 0.0 0.00 0.00 0.00 86 1020.7
20260902084918 16 266 0.0 0.0 0.00 0.00 0.00 86 1020.7
20260902084418 16 195 0.0 0.0 0.00 0.00 0.00 87 1020.7
20260902083918 16 181 0.0 0.0 0.00 0.00 0.00 89 1020.7
20260902083633 16 183 0.0 0.0 0.00 0.00 0.00 89 1020.7
20260902082905 16 163 0.0 0.0 0.00 0.00 0.00 90 1020.7
20260902082624 15 163 0.0 0.0 0.00 0.00 0.00 90 1020.7
20260902081853 15 161 0.0 0.0 0.00 0.00 0.00 91 1020.7
20260902081347 15 159 0.0 0.0 0.00 0.00 0.00 91 1020.7
20260902080842 15 136 0.0 0.0 0.00 0.00 0.00 91 1020.6
20260902080335 14 135 0.0 0.0 0.00 0.00 0.00 91 1020.7
20260902075829 13 135 0.0 0.0 0.00 0.00 0.00 91 1020.7
20260902075323 14 107 0.0 0.0 0.00 0.00 0.00 91 1020.7
20260902074820 13 107 0.0 0.0 0.00 0.00 0.00 91 1020.8
20260902074311 13 155 0.0 0.0 0.00 0.00 0.00 91 1020.7
20260902073806 13 161 0.0 0.0 0.00 0.00 0.00 91 1020.7
20260902073259 13 161 0.0 0.0 0.00 0.00 0.00 91 1020.6
20260902072753 13 161 0.0 0.0 0.00 0.00 0.00 91 1020.6
20260902072247 12 161 0.0 0.0 0.00 0.00 0.00 91 1020.6
20260902071746 12 161 0.0 0.0 0.00 0.00 0.00 91 1020.6
20260902071246 12 161 0.0 0.0 0.00 0.00 0.00 91 1020.5
20260902070745 12 161 0.0 0.0 0.00 0.00 0.00 91 1020.6
20260902070247 12 161 0.0 0.0 0.00 0.00 0.00 91 1020.6
20260902065744 11 161 0.0 0.0 0.00 0.00 0.00 91 1020.6
20260902065242 11 161 0.0 0.0 0.00 0.00 0.00 91 1020.5
20260902065003 11 161 0.0 0.0 0.00 0.00 0.00 91 1020.5
20260902064238 11 161 0.0 0.0 0.00 0.00 0.00 91 1020.5
20260902063736 11 161 0.0 0.0 0.00 0.00 0.00 91 1020.5
20260902063711 11 161 0.0 0.0 0.00 0.00 0.00 91 1020.6
20260902062732 11 161 0.0 0.0 0.00 0.00 0.00 91 1020.5
20260902062230 11 161 0.0 0.0 0.00 0.00 0.00 91 1020.5
20260902061728 11 161 0.0 0.0 0.00 0.00 0.00 91 1020.5
20260902061643 11 163 0.0 0.0 0.00 0.00 0.00 91 1020.5
20260902061315 11 163 0.0 0.0 0.00 0.00 0.00 91 1020.5
20260902060224 11 163 0.0 0.0 0.00 0.00 0.00 91 1020.6
20260902055720 11 163 0.0 0.0 0.00 0.00 0.00 91 1020.5
20260902055218 11 163 0.0 0.0 0.00 0.00 0.00 91 1020.5
20260902054716 11 163 0.0 0.0 0.00 0.00 0.00 91 1020.4
20260902054434 11 164 0.0 0.0 0.00 0.00 0.00 91 1020.4
20260902053928 10 165 0.0 0.0 0.00 0.00 0.00 91 1020.5
20260902053211 10 165 0.0 0.0 0.00 0.00 0.00 91 1020.5
20260902052929 10 165 0.0 0.0 0.00 0.00 0.00 91 1020.4
20260902052159 10 165 0.0 0.0 0.00 0.00 0.00 91 1020.4
20260902051654 10 165 0.0 0.0 0.00 0.00 0.00 91 1020.4
20260902051147 10 165 0.0 0.0 0.00 0.00 0.00 91 1020.5
20260902050648 10 165 0.0 0.0 0.00 0.00 0.00 91 1020.5
20260902050408 10 165 0.0 0.0 0.00 0.00 0.00 91 1020.4
20260902045915 10 165 0.0 0.0 0.00 0.00 0.00 91 1020.4
20260902045407 10 165 0.0 0.0 0.00 0.00 0.00 91 1020.5
20260902044644 10 165 0.0 0.0 0.00 0.00 0.00 91 1020.4
20260902044142 10 165 0.0 0.0 0.00 0.00 0.00 91 1020.4
20260902043642 10 165 0.0 0.0 0.00 0.00 0.00 91 1020.5
20260902043142 10 165 0.0 0.0 0.00 0.00 0.00 91 1020.5
20260902042845 10 165 0.0 0.0 0.00 0.00 0.00 91 1020.5
20260902042730 10 165 0.0 0.0 0.00 0.00 0.00 91 1020.5
20260902041859 10 165 0.0 0.0 0.00 0.00 0.00 91 1020.5
20260902041138 10 165 0.0 0.0 0.00 0.00 0.00 91 1020.5
20260902040638 10 165 0.0 0.0 0.00 0.00 0.00 91 1020.5
20260902040357 10 165 0.0 0.0 0.00 0.00 0.00 91 1020.5
20260902035634 10 165 0.0 0.0 0.00 0.00 0.00 91 1020.5
20260902035352 10 167 0.0 0.0 0.00 0.00 0.00 91 1020.5
20260902034631 10 162 0.0 0.0 0.00 0.00 0.00 91 1020.4
20260902034130 10 159 0.0 0.0 0.00 0.00 0.00 91 1020.4
20260902033630 10 155 0.0 0.0 0.00 0.00 0.00 91 1020.4
20260902033123 10 157 0.0 0.0 0.00 0.00 0.00 91 1020.5
20260902032618 10 150 0.0 0.0 0.00 0.00 0.00 91 1020.6
20260902032335 10 113 0.0 0.0 0.00 0.00 0.00 91 1020.7
20260902031605 10 113 0.0 0.0 0.00 0.00 0.00 91 1020.7
20260902031319 10 112 0.0 0.0 0.00 0.00 0.00 91 1020.8
20260902030557 10 112 0.0 0.0 0.00 0.00 0.00 91 1020.7
20260902030550 10 112 0.0 0.0 0.00 0.00 0.00 91 1020.8
20260902025800 10 112 0.0 0.0 0.00 0.00 0.00 91 1020.9
20260902025036 10 112 0.0 0.0 0.00 0.00 0.00 90 1020.8
20260902024535 10 116 0.0 0.0 0.00 0.00 0.00 90 1021.0
20260902024034 10 116 0.0 0.0 0.00 0.00 0.00 90 1021.0
20260902023753 10 116 0.0 0.0 0.00 0.00 0.00 90 1020.8
20260902023042 10 116 0.0 0.0 0.00 0.00 0.00 90 1020.9
20260902022527 10 116 0.0 0.0 0.00 0.00 0.00 90 1020.8
20260902022248 10 116 0.0 0.0 0.00 0.00 0.00 90 1020.8
20260902021539 10 116 0.0 0.0 0.00 0.00 0.00 90 1020.8
20260902021254 10 116 0.0 0.0 0.00 0.00 0.00 90 1020.9
20260902020745 10 115 0.0 0.0 0.00 0.00 0.00 90 1020.9
20260902020023 10 115 0.0 0.0 0.00 0.00 0.00 90 1021.0
20260902015520 10 115 0.0 0.0 0.00 0.00 0.00 90 1021.0
20260902015022 10 115 0.0 0.0 0.00 0.00 0.00 90 1020.9
20260902014520 10 115 0.0 0.0 0.00 0.00 0.00 90 1020.9
20260902014018 10 115 0.0 0.0 0.00 0.00 0.00 90 1020.9
20260902013515 10 115 0.0 0.0 0.00 0.00 0.00 90 1021.0
20260902013014 10 115 0.0 0.0 0.00 0.00 0.00 90 1020.9
20260902012517 10 114 0.0 0.0 0.00 0.00 0.00 90 1021.0
20260902012010 10 114 0.0 0.0 0.00 0.00 0.00 90 1020.9
20260902011730 10 114 0.0 0.0 0.00 0.00 0.00 90 1021.0
20260902011227 10 114 0.0 0.0 0.00 0.00 0.00 90 1020.9
20260902010507 10 114 0.0 0.0 0.00 0.00 0.00 90 1021.0
20260902010004 10 114 0.0 0.0 0.00 0.00 0.00 90 1021.0
20260902005501 10 114 0.0 0.0 0.00 0.00 0.00 90 1020.9
20260902005224 10 114 0.0 0.0 0.00 0.00 0.00 90 1020.9
20260902004459 10 114 0.0 0.0 0.00 0.00 0.00 90 1020.9
20260902004001 10 114 0.0 0.0 0.00 0.00 0.00 90 1020.9
20260902003459 10 114 0.0 0.0 0.00 0.00 0.00 90 1020.9
20260902002959 10 114 0.0 0.0 0.00 0.00 0.00 90 1020.9
20260902002500 10 114 0.0 0.0 0.00 0.00 0.00 90 1020.9
20260902002000 10 114 0.0 0.0 0.00 0.00 0.00 90 1020.9
20260902001459 10 114 0.0 0.0 0.00 0.00 0.00 90 1020.8
20260902001000 10 114 0.0 0.0 0.00 0.00 0.00 90 1020.9
20260902000500 10 115 0.0 0.0 0.00 0.00 0.00 90 1020.9
20260901235959 10 115 0.0 0.0 0.00 0.00 0.00 90 1021.0
20260901235500 10 115 0.0 0.0 0.00 0.00 0.00 90 1021.0
20260901235220 10 115 0.0 0.0 0.00 0.00 0.00 90 1020.9
20260901234722 10 115 0.0 0.0 0.00 0.00 0.00 90 1020.8
20260901234000 10 114 0.0 0.0 0.00 0.00 0.00 90 1020.9
20260901233721 10 114 0.0 0.0 0.00 0.00 0.00 89 1020.9
20260901233000 11 114 0.0 0.0 0.00 0.00 0.00 90 1021.1
20260901232457 11 114 0.0 0.0 0.00 0.00 0.00 89 1021.3
20260901231957 11 114 0.0 0.0 0.00 0.00 0.00 89 1021.4
20260901231458 11 114 0.0 0.0 0.00 0.00 0.00 89 1021.4
20260901230956 11 114 0.0 0.0 0.00 0.00 0.00 89 1021.5
20260901230456 11 114 0.0 0.0 0.00 0.00 0.00 89 1021.5
20260901225953 11 114 0.0 0.0 0.00 0.00 0.00 89 1021.4
20260901225717 11 114 0.0 0.0 0.00 0.00 0.00 89 1021.5
20260901224953 11 114 0.0 0.0 0.00 0.00 0.00 89 1021.5
20260901224454 11 114 0.0 0.0 0.00 0.00 0.00 89 1021.5
20260901223954 11 114 0.0 0.0 0.00 0.00 0.00 89 1021.5
20260901223447 11 114 0.0 0.0 0.00 0.00 0.00 89 1021.5
20260901222949 11 114 0.0 0.0 0.00 0.00 0.00 89 1021.4
20260901222718 11 114 0.0 0.0 0.00 0.00 0.00 89 1021.4
20260901221948 11 114 0.0 0.0 0.00 0.00 0.00 89 1021.4
20260901221447 11 114 0.0 0.0 0.00 0.00 0.00 89 1021.4
20260901220947 11 114 0.0 0.0 0.00 0.00 0.00 89 1021.4
20260901220446 11 114 0.0 0.0 0.00 0.00 0.00 89 1021.4
20260901215945 11 114 0.0 0.0 0.00 0.00 0.00 89 1021.4
20260901215702 11 114 0.0 0.0 0.00 0.00 0.00 89 1021.4
20260901214945 11 114 0.0 0.0 0.00 0.00 0.00 89 1021.4
20260901214445 11 114 0.0 0.0 0.00 0.00 0.00 89 1021.3
20260901213945 12 114 0.0 0.0 0.00 0.00 0.00 89 1021.3
20260901213703 12 114 0.0 0.0 0.00 0.00 0.00 89 1021.3
20260901212932 12 114 0.0 0.0 0.00 0.00 0.00 88 1021.3
20260901212427 12 114 0.0 0.0 0.00 0.00 0.00 89 1021.4
20260901211920 12 114 0.0 0.0 0.00 0.00 0.00 88 1021.3
20260901211414 12 114 0.0 0.0 0.00 0.00 0.00 88 1021.1
20260901210909 12 114 0.0 0.0 0.00 0.00 0.00 88 1021.1
20260901210403 12 114 0.0 0.0 0.00 0.00 0.00 88 1021.1
20260901205856 12 114 0.0 0.0 0.00 0.00 0.00 88 1021.0
20260901205609 12 114 0.0 0.0 0.00 0.00 0.00 88 1021.0
20260901204845 12 114 0.0 0.0 0.00 0.00 0.00 88 1021.0
20260901204341 12 114 0.0 0.0 0.00 0.00 0.00 88 1021.0
20260901203832 12 114 0.0 0.0 0.00 0.00 0.00 88 1021.0
20260901203329 12 114 0.0 0.0 0.00 0.00 0.00 88 1021.0
20260901202820 12 114 0.0 0.0 0.00 0.00 0.00 88 1021.0
20260901202315 13 114 0.0 0.0 0.00 0.00 0.00 87 1021.1
20260901201808 13 114 0.0 0.0 0.00 0.00 0.00 88 1021.1
20260901201303 13 114 0.0 0.0 0.00 0.00 0.00 87 1021.1
20260901200757 13 114 0.0 0.0 0.00 0.00 0.00 87 1021.1
20260901200250 13 114 0.0 0.0 0.00 0.00 0.00 87 1021.0
20260901195747 13 114 0.0 0.0 0.00 0.00 0.00 87 1021.0
20260901195239 13 114 0.0 0.0 0.00 0.00 0.00 87 1021.0
20260901194733 13 116 0.0 0.0 0.00 0.00 0.00 86 1021.1
20260901194226 14 116 0.0 0.0 0.00 0.00 0.00 87 1021.1
20260901193722 13 116 0.0 0.0 0.00 0.00 0.00 86 1021.1
20260901193431 14 116 0.0 0.0 0.00 0.00 0.00 86 1021.1
20260901192709 14 116 0.0 0.0 0.00 0.00 0.00 86 1021.0
20260901192426 14 116 0.0 0.0 0.00 0.00 0.00 86 1021.0
20260901191716 14 116 0.0 0.0 0.00 0.00 0.00 86 1021.0
20260901191202 14 116 0.0 0.0 0.00 0.00 0.00 85 1021.0
20260901190703 15 117 0.0 0.0 0.00 0.00 0.00 85 1021.0
20260901190201 15 117 0.0 0.0 0.00 0.00 0.00 85 1021.0
20260901185922 15 117 0.0 0.0 0.00 0.00 0.00 85 1020.9
20260901185201 15 117 0.0 0.0 0.00 0.00 0.00 85 1020.9
20260901184658 15 117 0.0 0.0 0.00 0.00 0.00 85 1020.9
20260901184157 15 117 0.0 0.0 0.00 0.00 0.00 85 1020.8
20260901183657 15 117 0.0 0.0 0.00 0.00 0.00 84 1020.7
20260901183156 15 117 0.0 0.0 0.00 0.00 0.00 84 1020.7
20260901182923 16 117 0.0 0.0 0.00 0.00 0.00 84 1020.6
20260901182152 16 122 0.0 0.0 0.00 0.00 0.00 83 1020.5
20260901181653 16 134 0.0 0.0 0.00 0.00 0.00 83 1020.5
20260901181153 16 208 0.0 0.0 0.00 0.00 0.00 82 1020.5
20260901180653 16 223 0.0 0.0 0.00 0.00 0.00 81 1020.3
20260901180153 17 230 0.0 0.0 0.00 0.00 0.00 81 1020.4
20260901175706 17 230 0.0 0.0 0.00 0.00 0.00 80 1020.3
20260901175408 17 230 0.0 0.0 0.00 0.00 0.00 79 1020.3
20260901174648 17 230 0.0 0.0 0.00 0.00 0.00 78 1020.1
20260901174620 17 231 0.0 0.0 0.00 0.00 0.00 77 1020.2
20260901173650 18 276 0.0 0.0 0.00 0.00 0.00 74 1020.2
20260901173131 18 276 0.0 0.0 0.00 0.00 0.00 72 1020.2
20260901172624 18 277 0.0 0.0 0.00 0.00 0.00 71 1020.2
20260901172118 19 277 0.0 0.0 0.00 0.00 0.00 70 1020.1
20260901171613 19 266 0.0 0.0 0.00 0.00 0.00 69 1020.2
20260901171106 19 280 0.0 0.0 0.00 0.00 0.00 69 1020.2
20260901170821 19 280 0.0 0.0 0.00 0.00 0.00 68 1020.1
20260901170108 20 264 0.0 0.0 0.00 0.00 0.00 68 1020.1
20260901165548 20 297 0.0 0.0 0.00 0.00 0.00 68 1020.1
20260901165042 20 204 0.0 0.0 0.00 0.00 0.00 69 1020.0
20260901164536 20 219 0.0 0.0 0.00 0.00 0.00 68 1020.1
20260901164513 20 236 0.0 0.0 0.00 0.00 0.00 67 1020.1
20260901163524 20 245 0.0 0.0 0.00 0.00 0.00 66 1020.1
20260901163238 20 206 0.0 0.0 0.00 0.00 0.00 65 1020.1
20260901162512 20 23 0.0 0.0 0.00 0.00 0.00 64 1020.1
20260901162006 20 275 0.0 0.0 0.00 0.00 0.00 65 1020.2
20260901161500 20 267 0.0 0.0 0.00 0.00 0.00 66 1020.1
20260901161217 20 284 0.0 0.0 0.00 0.00 0.00 66 1020.2
20260901160451 19 288 0.0 0.0 0.00 0.00 0.00 72 1020.1
20260901155951 19 257 0.0 0.0 0.00 0.00 0.00 73 1020.1
20260901155451 19 285 0.0 0.0 0.00 0.00 0.00 74 1020.1
20260901154948 19 291 0.0 0.0 0.00 0.00 0.00 71 1020.0
20260901154449 19 291 0.0 0.0 0.00 0.00 0.00 70 1020.1
20260901154211 19 290 0.0 0.0 0.00 0.00 0.00 69 1020.1
20260901153447 19 288 0.0 0.0 0.00 0.00 0.00 69 1020.1
20260901152947 19 327 0.0 0.0 0.00 0.00 0.00 69 1020.1
20260901152444 19 262 0.0 0.0 0.00 0.00 0.00 70 1020.1
20260901151943 19 261 0.0 0.0 0.00 0.00 0.00 71 1020.2
20260901151444 19 186 0.0 0.0 0.00 0.00 0.00 71 1020.2
20260901150943 19 186 0.0 0.0 0.00 0.00 0.00 71 1020.2